Flag Weather past 2 weeks in Bergisch Gladbach, North Rhine-Westphalia, Germany

Now
39 °F

Overcast.


Feels Like: 34 °F
Forecast: 35 / 46 °F
Wind: 7 mph from Southeast

Location: Koeln / Bonn

Current Time: Nov 29, 2014 at 2:56:15 AM

Latest Report: Nov 29, 2014 at 2:20 AM


Visibility: N/A

Pressure: 29.92 "Hg

Humidity: 81%

Dew point: 34 °F

Location of Bergisch GladbachLocation

Historic Weather in Bergisch Gladbach — Graph

°F

Bergisch Gladbach temperature yesterday

Maximum temperature yesterday: 46 °F (at 11:20 AM)
Minimum temperature yesterday: 39 °F (at 4:50 PM)
Average temperature yesterday: 42 °F

Past Weeks' High & Low Weather Summary

 TemperatureHumidityPressure
High55 °F (Nov 14, 11:20 AM)100% (Nov 16, 5:50 AM)30.36 "Hg (Nov 16, 5:50 AM)
Low27 °F (Nov 25, 4:20 AM)50% (Nov 25, 3:20 PM)29.53 "Hg (Nov 16, 2:20 PM)
Average45 °F84%29.95 "Hg
* Reported Nov 14 1:20 AM — Nov 29 1:50 AM, Bergisch Gladbach, Weather by CustomWeather, © 2014

Note: Actual official high and low records may vary slightly from our data, if they occured in-between our weather recording intervals... More about our weather records

Advertising

Bergisch Gladbach weather history for previous 24 hours

 ConditionsComfort  
Time TempWeatherWind HumidityBarometerVisibility
1:50 AM
Nov 29
39 °FOvercast.7 mph87%29.92 "HgN/A
1:20 AM39 °FOvercast.8 mph87%29.92 "HgN/A
12:50 AM39 °FOvercast.6 mph87%29.92 "HgN/A
12:20 AM39 °FOvercast.7 mph87%29.92 "HgN/A
11:50 PM
Nov 28
39 °FOvercast.6 mph87%29.92 "HgN/A
11:20 PM39 °FOvercast.7 mph87%29.92 "HgN/A
10:50 PM39 °FOvercast.6 mph87%29.92 "HgN/A
10:20 PM39 °FOvercast.6 mph87%29.92 "HgN/A
9:50 PM39 °FOvercast.7 mph87%29.89 "HgN/A
9:20 PM39 °FOvercast.6 mph87%29.89 "HgN/A
8:50 PM39 °FOvercast.5 mph87%29.89 "HgN/A
8:20 PM39 °FPassing clouds.5 mph87%29.89 "HgN/A
7:50 PM39 °FPassing clouds.6 mph87%29.89 "HgN/A
7:20 PM39 °FPassing clouds.6 mph87%29.86 "HgN/A
6:50 PM39 °FPassing clouds.5 mph87%29.86 "HgN/A
6:20 PM39 °FPassing clouds.6 mph87%29.86 "HgN/A
5:50 PM39 °FPassing clouds.6 mph87%29.86 "HgN/A
5:20 PM39 °FPassing clouds.7 mph87%29.86 "HgN/A
4:50 PM39 °FPassing clouds.9 mph87%29.86 "HgN/A
4:20 PM41 °FPassing clouds.13 mph87%29.83 "HgN/A
3:50 PM43 °FPassing clouds.14 mph81%29.83 "HgN/A
3:20 PM43 °FPassing clouds.14 mph81%29.83 "HgN/A
2:50 PM43 °FScattered clouds.13 mph81%29.83 "HgN/A
2:20 PM45 °FScattered clouds.13 mph76%29.80 "HgN/A
1:50 PM45 °FScattered clouds.12 mph81%29.80 "HgN/A
1:20 PM46 °FScattered clouds.16 mph76%29.80 "HgN/A
12:50 PM45 °FScattered clouds.17 mph76%29.83 "HgN/A
12:20 PM46 °FSunny.15 mph76%29.83 "Hg10 mi
11:50 AM46 °FSunny.7 mph76%29.83 "Hg10 mi
11:20 AM46 °FBroken clouds.10 mph76%29.83 "HgN/A
10:50 AM45 °FPartly sunny.10 mph81%29.83 "HgN/A
10:20 AM43 °FPartly sunny.9 mph81%29.83 "HgN/A
9:50 AM43 °FPartly sunny.10 mph81%29.83 "HgN/A
9:20 AM43 °FPartly sunny.8 mph81%29.83 "HgN/A
8:50 AM43 °FSunny.9 mph81%29.80 "Hg10 mi
8:20 AM41 °FPartly sunny.8 mph87%29.80 "HgN/A
7:50 AM41 °FClear.9 mph87%29.80 "Hg10 mi
7:20 AM41 °FClear.9 mph87%29.80 "Hg10 mi
6:50 AM41 °FClear.9 mph87%29.77 "Hg10 mi
6:20 AM41 °FClear.9 mph87%29.77 "Hg10 mi
5:50 AM41 °FClear.8 mph87%29.77 "Hg10 mi
5:20 AM41 °FClear.8 mph87%29.77 "Hg10 mi
4:50 AM41 °FClear.9 mph87%29.77 "Hg10 mi
4:20 AM41 °FClear.8 mph87%29.77 "Hg10 mi
3:50 AM43 °FClear.9 mph81%29.77 "Hg10 mi
3:20 AM43 °FPassing clouds.13 mph81%29.77 "HgN/A
2:50 AM43 °FPassing clouds.14 mph81%29.77 "HgN/A
2:20 AM43 °FOvercast.14 mph81%29.77 "HgN/A
Weather by CustomWeather, © 2014

See weather overviewHow to use our weather pages